Wind_Speed
8 7 7 6 6 6 6 5 5 5 5 4 4 4 4 4 4 3 3 3 3 2 2 2 3 3 4 4 4 4 4 5 5 5 5 6 6 6 7 7 7 8 9
7 6 6 5 5 5 5 4 4 3 4 4 4 4 4 4 4 3 3 3 4 3 4 4 4 5 5 5 5 5 6 5 5 6 7 7 7 7 8 9 10 10 10
6 6 5 5 5 5 5 4 4 3 3 3 3 4 4 4 4 4 3 4 4 5 5 5 6 6 6 6 7 6 6 7 7 7 8 8 8 8 9 10 11 12 12
6 5 5 4 4 5 6 5 4 3 3 3 4 5 5 6 5 5 5 5 5 6 7 7 8 7 8 8 8 8 9 9 10 9 10 10 10 10 11 13 13 12 13
6 5 5 5 4 5 6 6 5 4 4 4 4 5 6 6 6 6 6 7 7 8 8 8 9 9 9 10 10 10 10 10 11 11 12 12 12 12 13 14 14 14 14
8 7 6 5 5 6 6 7 7 6 6 6 6 7 7 7 8 8 8 9 9 9 9 9 10 10 11 11 12 12 12 12 13 14 14 14 15 15 15 15 15 15 15
9 8 7 6 5 6 7 8 8 8 8 8 8 8 8 8 8 9 9 9 10 11 11 11 11 11 12 12 13 13 13 14 14 15 15 16 16 17 17 17 17 16 16
10 9 9 8 7 7 8 9 10 10 9 10 10 10 9 9 9 11 11 11 12 12 13 13 12 12 13 14 14 15 15 16 16 17 17 18 18 18 18 19 18 17 18
11 11 10 10 9 8 9 10 11 10 10 11 11 11 11 11 11 12 12 12 12 13 14 14 15 15 15 16 17 17 17 18 18 19 20 20 19 20 20 20 20 20 20
13 14 13 13 13 12 11 11 11 11 11 11 12 12 12 12 12 12 13 14 15 16 16 15 16 17 17 18 18 18 18 19 19 20 21 21 21 21 21 21 22 22 22
14 15 15 17 16 15 14 14 13 13 13 13 13 14 14 15 15 15 15 16 17 17 17 17 18 18 19 19 19 19 19 20 21 22 22 23 24 23 24 24 24 23 23
17 16 16 16 16 16 15 15 16 15 15 15 15 16 16 17 17 17 18 18 18 18 19 19 20 21 21 22 21 21 22 22 23 23 23 23 24 24 25 25 25 25 24
19 18 16 16 17 18 17 17 17 17 17 17 18 18 19 19 19 19 20 21 20 20 21 21 21 22 24 24 24 24 24 25 25 26 25 25 26 26 26 26 26 26 25
21 20 18 18 19 19 18 18 19 19 19 19 20 20 21 21 22 22 22 22 22 23 24 23 23 24 25 25 26 26 26 27 27 27 27 28 28 28 28 27 27 27 26
23 23 22 21 21 21 21 21 20 21 21 22 22 23 23 24 24 24 24 24 25 25 25 26 26 27 27 27 28 28 29 29 29 29 29 29 29 29 29 29 29 28 28
26 26 24 23 24 24 24 23 23 23 23 23 24 24 25 25 25 26 26 27 27 27 28 28 28 29 30 30 31 31 30 30 30 29 29 30 30 30 30 30 30 30 30
27 27 26 25 25 26 26 26 25 24 24 24 25 26 26 27 28 28 28 28 29 30 30 30 31 31 32 32 33 33 32 31 31 31 30 30 30 30 31 31 31 31 31
28 28 27 27 27 27 27 27 27 26 25 25 26 26 27 28 29 29 29 30 31 30 31 32 33 34 34 34 33 33 33 32 32 32 32 32 31 32 32 33 33 32 33
29 29 30 29 29 28 27 28 28 28 27 27 28 28 29 29 30 31 31 32 32 32 33 34 35 35 35 35 35 34 34 34 34 33 33 32 32 33 33 33 34 34 34
30 30 30 30 30 29 29 29 29 30 30 30 30 30 30 31 31 32 32 33 34 34 34 34 35 36 36 36 35 35 35 35 35 35 34 34 34 35 35 35 34 34 35
31 30 30 31 30 30 30 30 31 31 32 32 32 32 33 33 33 33 34 34 35 35 35 35 36 36 36 36 36 35 34 35 35 35 36 36 36 36 36 36 36 36 36
32 31 31 31 31 31 31 31 32 33 33 34 34 34 35 35 35 36 36 36 36 37 37 37 36 37 37 37 36 36 35 36 36 36 36 36 36 36 36 36 36 36 36
32 32 32 32 31 32 32 32 33 34 35 35 35 36 36 36 36 37 37 37 38 38 37 37 37 38 38 38 37 36 36 36 36 36 36 36 35 36 36 36 36 36 36
33 34 33 32 32 31 32 32 33 34 35 35 35 35 36 36 36 36 37 37 37 37 37 37 37 38 37 37 37 36 36 36 36 36 36 36 36 35 35 35 36 36 35
33 33 33 32 32 33 34 34 34 35 35 35 35 35 36 35 35 35 36 36 37 37 37 37 37 37 37 36 36 35 35 36 36 36 36 36 36 35 35 35 35 35 34
33 34 35 35 35 34 34 34 34 35 35 35 35 35 36 36 36 35 35 35 35 36 36 36 36 36 37 36 35 35 35 36 36 36 36 36 35 35 35 35 34 33 33
Wind_Direction
40 39 35 37 42 43 41 39 39 39 40 38 35 34 29 23 23 16 10 8 355 350 336 314 317 312 312 318 319 303 298 296 294 290 290 286 286 287 288 294 297 294 290
34 34 32 27 26 28 24 26 28 25 23 23 15 7 2 3 355 353 4 352 341 338 327 298 299 300 300 297 304 304 301 302 298 295 289 282 290 290 293 294 296 290 287
10 15 16 12 17 21 23 18 20 12 2 2 355 348 352 350 346 345 339 329 331 326 312 301 291 290 294 294 295 300 300 298 298 294 293 294 290 292 292 294 292 285 283
348 359 359 360 5 11 12 2 5 8 5 358 351 340 341 343 334 328 325 323 324 320 312 303 301 292 298 294 294 298 296 294 293 292 289 287 287 286 289 290 291 289 288
327 330 329 329 331 345 349 353 351 348 345 338 333 331 324 324 320 315 313 307 310 317 312 306 302 295 293 293 293 300 297 294 292 290 293 290 286 287 290 288 290 290 287
317 312 305 305 315 319 334 338 334 329 326 324 317 311 309 309 306 305 303 303 306 310 307 303 303 297 290 289 289 294 294 293 290 289 292 292 290 291 292 289 288 287 285
300 290 289 289 301 310 319 324 324 316 310 307 308 306 304 300 300 299 299 298 302 303 299 298 300 297 291 290 293 292 293 293 289 291 292 291 291 291 290 288 288 285 284
298 289 293 297 294 299 305 310 311 310 305 301 301 297 295 296 296 296 294 292 294 300 299 296 296 295 294 294 294 292 290 291 289 289 291 291 290 290 289 287 287 286 286
297 300 296 300 302 298 297 300 303 302 301 298 297 297 292 292 293 295 292 294 293 296 297 297 294 293 290 293 294 290 289 290 288 288 290 293 290 289 288 288 287 285 285
305 307 302 299 299 301 296 296 297 296 299 298 298 297 295 292 294 296 295 294 294 294 295 298 299 296 292 290 292 292 290 288 287 288 289 289 288 288 287 287 288 287 286
304 302 299 298 294 295 295 297 297 296 296 297 296 294 293 295 292 294 295 292 292 295 297 298 296 296 295 293 293 292 291 287 286 286 287 288 288 287 286 287 288 288 289
302 300 298 297 291 287 290 294 294 295 296 297 295 293 292 292 293 292 294 293 291 291 294 295 294 293 292 292 292 290 290 289 288 287 287 287 287 287 286 287 287 289 290
295 298 297 296 296 291 290 291 291 293 294 294 292 292 292 292 293 294 293 295 293 292 295 296 295 293 292 293 292 290 290 289 288 288 287 286 285 286 286 287 287 288 289
292 296 296 298 297 292 290 289 288 289 288 287 287 288 289 290 290 291 292 293 293 294 296 296 297 297 297 296 295 293 291 290 287 286 287 287 285 285 286 287 288 289 289
291 293 295 295 296 294 290 288 286 286 285 285 286 287 286 288 289 289 290 290 289 292 293 294 296 296 295 295 294 294 294 293 290 289 288 287 287 286 287 286 287 287 287
290 290 292 292 292 290 288 288 286 286 285 285 285 287 288 287 289 289 288 289 290 291 291 292 293 293 293 293 293 293 294 293 291 290 288 288 287 286 286 286 285 285 286
289 290 289 290 291 288 288 287 286 286 286 285 285 285 287 287 288 289 288 289 289 288 289 291 292 293 292 292 292 291 291 292 291 290 289 289 288 286 286 286 285 285 285
286 287 287 287 287 287 288 286 286 286 285 285 286 287 287 287 287 289 289 290 291 291 293 293 294 293 294 293 291 289 288 289 289 289 288 288 286 285 285 286 286 285 285
284 285 284 284 284 285 286 286 287 286 286 286 286 287 288 287 288 288 289 291 292 293 294 295 294 293 293 293 292 290 289 288 288 289 289 288 287 287 285 285 285 284 284
283 285 285 285 284 285 286 287 286 286 286 286 286 287 287 286 287 287 289 291 292 293 294 294 293 292 292 291 290 290 289 288 288 288 288 288 288 288 287 285 284 284 284
284 285 285 284 283 282 284 285 285 284 284 285 285 286 286 285 285 287 289 290 291 292 294 294 294 294 293 291 289 289 289 290 289 288 289 288 288 287 286 285 285 285 284
280 282 284 284 284 283 283 283 283 283 283 284 285 285 286 286 286 287 289 290 290 292 293 293 294 294 293 291 290 289 289 289 288 289 289 288 287 286 286 285 285 284 284
280 281 282 283 284 285 284 282 283 282 283 283 284 286 286 286 287 288 288 289 290 291 292 293 293 294 294 292 290 289 290 289 289 288 287 287 286 285 285 284 284 282 282
280 281 283 284 284 284 284 283 284 284 284 285 285 285 285 285 286 287 287 288 289 290 292 292 293 293 293 292 291 290 289 290 289 289 288 288 287 286 285 284 284 282 281
279 281 281 283 283 282 283 285 285 285 285 285 286 285 285 286 287 287 287 287 288 289 290 291 292 292 293 293 292 291 291 290 290 289 289 288 288 287 285 285 284 282 282
278 279 280 282 281 281 283 285 286 286 286 286 287 288 288 288 288 288 288 289 289 289 290 291 292 292 292 292 291 291 291 290 290 290 290 289 288 287 286 285 284 283 281
Height
5921 5920 5920 5919 5918 5918 5917 5916 5916 5915 5915 5914 5913 5913 5912 5911 5911 5910 5910 5909 5908 5908 5907 5907 5906 5906 5905 5905 5904 5903 5903 5902 5901 5900 5900 5899 5899 5898 5897 5896 5895 5893 5892
5921 5920 5920 5920 5919 5918 5917 5916 5915 5915 5914 5914 5913 5913 5912 5911 5911 5910 5909 5909 5908 5907 5906 5905 5905 5905 5904 5903 5903 5902 5901 5900 5900 5899 5898 5897 5897 5896 5894 5893 5892 5891 5889
5921 5920 5920 5920 5919 5917 5916 5915 5915 5914 5914 5913 5913 5912 5911 5911 5910 5909 5908 5908 5907 5906 5905 5904 5904 5903 5902 5901 5900 5899 5899 5898 5898 5897 5896 5895 5894 5893 5892 5890 5889 5888 5886
5920 5920 5919 5919 5918 5917 5916 5915 5914 5913 5913 5912 5911 5911 5910 5909 5909 5908 5907 5906 5905 5904 5903 5901 5901 5900 5900 5899 5898 5897 5896 5895 5895 5894 5893 5892 5891 5890 5889 5888 5886 5884 5883
5920 5919 5918 5918 5917 5916 5915 5914 5913 5912 5912 5911 5910 5910 5909 5908 5907 5906 5905 5904 5903 5902 5901 5900 5899 5898 5897 5896 5895 5895 5893 5893 5892 5891 5890 5889 5888 5886 5886 5884 5882 5880 5879
5918 5918 5917 5916 5916 5915 5913 5913 5912 5911 5910 5909 5909 5908 5907 5906 5905 5904 5903 5902 5901 5900 5899 5898 5897 5895 5894 5893 5892 5891 5891 5889 5888 5887 5886 5885 5884 5882 5881 5880 5878 5877 5875
5916 5915 5915 5913 5913 5913 5912 5911 5910 5909 5908 5907 5907 5906 5905 5904 5903 5902 5901 5900 5898 5897 5896 5895 5893 5892 5891 5890 5889 5888 5887 5886 5884 5883 5882 5881 5879 5878 5876 5875 5874 5872 5871
5912 5912 5912 5911 5910 5910 5910 5909 5908 5907 5906 5905 5904 5903 5902 5901 5900 5899 5898 5896 5895 5894 5893 5891 5890 5889 5888 5886 5885 5884 5883 5882 5880 5879 5877 5876 5875 5873 5871 5870 5868 5867 5866
5910 5909 5909 5908 5908 5907 5906 5906 5905 5904 5903 5902 5901 5900 5899 5898 5897 5895 5894 5893 5891 5890 5889 5888 5886 5885 5884 5882 5881 5880 5878 5877 5876 5874 5872 5871 5869 5868 5866 5864 5863 5862 5861
5907 5906 5905 5905 5904 5903 5903 5902 5901 5901 5900 5898 5897 5896 5895 5894 5893 5891 5890 5889 5888 5886 5885 5883 5882 5881 5879 5878 5876 5874 5873 5871 5870 5868 5867 5865 5863 5862 5860 5859 5857 5856 5855
5904 5903 5901 5901 5900 5900 5899 5898 5898 5897 5896 5895 5894 5893 5891 5890 5888 5887 5885 5884 5883 5882 5880 5879 5877 5876 5874 5872 5870 5869 5867 5866 5864 5862 5861 5859 5857 5856 5854 5853 5851 5850 5848
5900 5898 5896 5895 5895 5895 5894 5894 5894 5893 5892 5891 5890 5888 5887 5885 5884 5882 5880 5878 5877 5876 5875 5873 5872 5870 5868 5866 5865 5863 5861 5860 5858 5856 5854 5853 5851 5849 5848 5846 5845 5843 5842
5895 5894 5892 5892 5891 5891 5890 5890 5889 5888 5887 5886 5885 5883 5882 5880 5879 5877 5875 5874 5872 5871 5869 5867 5866 5864 5862 5860 5858 5856 5855 5853 5852 5850 5848 5846 5844 5842 5841 5839 5838 5836 5835
5891 5890 5890 5889 5888 5887 5886 5885 5884 5883 5882 5881 5880 5878 5877 5875 5873 5872 5870 5868 5866 5865 5863 5861 5860 5858 5856 5854 5852 5850 5848 5846 5844 5842 5841 5839 5837 5835 5834 5832 5831 5829 5828
5887 5886 5885 5884 5883 5882 5881 5880 5878 5878 5876 5875 5874 5872 5871 5869 5868 5866 5864 5862 5860 5859 5857 5855 5854 5852 5850 5847 5845 5843 5841 5839 5837 5835 5833 5831 5829 5827 5826 5824 5823 5822 5820
5880 5879 5878 5877 5877 5876 5875 5873 5872 5871 5870 5868 5867 5866 5864 5862 5861 5859 5857 5855 5853 5852 5850 5848 5847 5845 5842 5840 5838 5836 5833 5831 5829 5827 5825 5822 5821 5819 5817 5816 5814 5813 5812
5873 5872 5871 5871 5870 5869 5868 5867 5865 5864 5863 5861 5860 5859 5857 5855 5854 5851 5850 5848 5846 5844 5842 5840 5838 5836 5834 5831 5829 5827 5825 5822 5820 5818 5816 5814 5812 5810 5809 5807 5806 5804 5803
5867 5866 5865 5864 5863 5862 5861 5859 5857 5856 5855 5854 5852 5851 5849 5848 5846 5844 5842 5839 5837 5835 5833 5831 5829 5827 5825 5822 5820 5817 5815 5813 5811 5809 5807 5805 5803 5802 5800 5798 5796 5795 5793
5859 5859 5858 5856 5855 5854 5852 5851 5849 5848 5847 5846 5844 5843 5841 5839 5837 5835 5833 5831 5829 5826 5824 5822 5820 5818 5815 5813 5810 5808 5806 5803 5801 5800 5798 5796 5794 5792 5790 5789 5787 5785 5784
5851 5850 5849 5847 5846 5845 5843 5842 5841 5839 5838 5837 5835 5833 5832 5830 5828 5826 5824 5822 5820 5817 5815 5812 5810 5807 5805 5802 5800 5798 5795 5793 5792 5790 5788 5786 5784 5782 5780 5778 5777 5775 5774
5842 5841 5840 5838 5837 5836 5835 5834 5832 5831 5829 5828 5826 5824 5822 5820 5818 5816 5814 5812 5810 5808 5805 5803 5800 5797 5794 5791 5789 5787 5785 5783 5781 5780 5778 5775 5773 5771 5769 5767 5766 5764 5763
5834 5832 5831 5830 5829 5827 5825 5824 5823 5821 5820 5818 5817 5815 5812 5810 5808 5806 5804 5802 5800 5797 5795 5792 5790 5787 5784 5781 5779 5777 5775 5773 5771 5769 5767 5765 5763 5760 5758 5756 5754 5753 5751
5825 5823 5822 5821 5819 5818 5816 5814 5813 5812 5810 5809 5807 5805 5802 5800 5798 5796 5794 5791 5789 5787 5784 5782 5779 5776 5773 5770 5768 5766 5764 5762 5760 5758 5756 5754 5752 5750 5747 5745 5743 5742 5740
5816 5815 5813 5811 5809 5808 5806 5805 5804 5802 5800 5799 5797 5795 5792 5790 5787 5785 5783 5781 5778 5776 5773 5771 5768 5765 5763 5760 5757 5755 5753 5751 5749 5747 5745 5743 5741 5738 5736 5734 5732 5730 5729
5806 5805 5804 5802 5801 5799 5798 5796 5794 5792 5790 5788 5787 5784 5781 5779 5777 5774 5772 5770 5768 5765 5763 5760 5758 5755 5752 5749 5747 5745 5742 5740 5738 5736 5734 5732 5730 5727 5725 5723 5721 5720 5718
5797 5796 5794 5793 5792 5790 5788 5786 5784 5782 5780 5778 5776 5774 5771 5768 5766 5764 5762 5759 5757 5754 5752 5749 5747 5744 5742 5739 5736 5734 5732 5729 5727 5725 5723 5720 5718 5716 5714 5712 5710 5709 5707